Total_Precipitation_Accumulation
1.93 2.26 2.40 2.35 2.31 2.38 2.22 2.16 2.27 2.28 2.26 2.34 2.36 2.35 2.32 2.43 2.63 2.87 2.81 2.96 3.07 3.10 3.07 2.99 2.91 2.96 3.15 3.06 3.17 3.32 3.59 3.85 3.54 3.10 2.92 2.87 2.93 2.82 2.65 2.29 2.01 1.89 1.74
2.19 2.55 2.72 2.52 2.30 2.15 1.97 1.95 2.09 2.25 2.30 2.33 2.34 2.33 2.24 2.34 2.61 2.76 2.85 3.09 3.22 3.09 3.01 2.99 2.85 2.98 3.08 3.06 3.12 3.10 3.21 3.56 3.45 3.17 3.08 3.12 3.03 2.87 2.78 2.59 2.19 1.97 1.98
2.01 2.38 2.45 2.23 2.01 1.97 1.95 1.98 2.10 2.29 2.31 2.30 2.33 2.36 2.43 2.59 2.77 2.88 2.96 3.11 3.07 2.94 2.98 2.89 2.75 2.85 2.76 2.83 2.87 2.89 2.89 3.03 3.24 3.12 2.98 3.07 2.99 2.86 2.82 2.68 2.57 2.64 2.38
1.62 1.96 1.95 1.82 1.77 1.82 1.86 1.92 1.94 2.04 2.11 2.16 2.33 2.50 2.61 2.77 2.89 2.92 2.96 2.92 2.88 2.73 2.62 2.55 2.57 2.70 2.79 2.78 2.67 2.66 2.75 2.91 3.02 3.05 3.00 3.08 3.10 3.13 3.06 2.91 2.90 2.84 2.64
1.56 1.83 1.79 1.71 1.75 1.74 1.74 1.86 1.94 1.99 2.01 2.26 2.41 2.49 2.53 2.55 2.61 2.81 2.78 2.67 2.64 2.48 2.35 2.18 2.20 2.55 2.70 2.68 2.46 2.58 2.67 2.74 2.83 2.96 2.99 3.07 3.16 3.40 3.23 2.97 2.85 2.92 2.75
1.50 1.79 1.76 1.66 1.64 1.59 1.67 1.81 1.94 2.02 2.19 2.38 2.38 2.38 2.33 1.96 2.07 2.25 2.26 2.25 2.29 2.25 2.12 2.05 2.04 2.11 2.14 2.19 2.21 2.25 2.33 2.40 2.61 2.93 3.00 2.98 2.94 3.05 3.20 3.16 3.08 2.98 2.86
1.56 1.81 1.83 1.74 1.70 1.67 1.63 1.81 2.01 2.24 2.43 2.52 2.46 2.40 2.23 2.10 1.99 1.89 1.87 1.92 2.06 2.08 2.10 2.17 1.85 1.65 1.81 1.83 1.99 1.99 1.93 2.05 2.21 2.48 2.67 2.69 2.80 2.82 3.12 3.16 3.23 3.24 3.15
1.57 1.79 1.87 1.85 1.88 1.96 1.98 2.05 2.24 2.50 2.68 2.69 2.65 2.53 2.39 2.25 2.16 1.97 1.96 1.88 1.95 1.97 1.99 2.03 1.97 1.84 1.81 1.92 2.02 1.96 1.80 1.75 1.76 1.73 1.94 2.25 2.54 2.83 2.92 2.99 3.13 3.20 3.19
1.49 1.73 1.93 2.05 2.12 2.10 2.15 2.42 2.62 2.79 2.82 2.77 2.85 2.76 2.61 2.55 2.37 2.02 1.86 1.76 1.90 1.93 1.93 1.88 1.83 1.75 1.85 1.75 1.70 1.70 1.71 1.68 1.54 1.53 1.60 1.82 2.06 2.17 2.40 2.66 2.88 2.89 2.82
1.86 2.02 2.31 2.52 2.65 2.68 2.76 2.82 2.89 2.99 2.94 2.95 2.87 2.82 2.70 2.64 2.56 2.04 1.78 1.67 1.84 1.87 1.92 1.87 1.75 1.59 1.61 1.52 1.45 1.58 1.58 1.58 1.65 1.59 1.47 1.48 1.55 1.73 1.85 1.94 2.26 2.50 2.40
2.30 2.38 2.64 2.99 3.17 3.13 3.15 3.04 2.96 2.96 2.97 2.97 2.85 2.75 2.67 2.58 2.49 2.05 1.87 1.82 1.93 2.01 1.94 1.83 1.76 1.65 1.47 1.44 1.38 1.40 1.48 1.52 1.61 1.66 1.60 1.52 1.59 1.71 1.68 1.66 1.85 2.12 2.23
2.61 2.91 3.14 3.31 3.14 3.05 3.21 3.10 3.11 3.17 3.14 3.04 2.94 2.83 2.83 2.73 2.50 2.17 1.96 1.94 2.00 2.05 2.07 2.02 1.93 1.73 1.50 1.44 1.34 1.30 1.30 1.23 1.22 1.39 1.45 1.41 1.45 1.57 1.65 1.66 1.73 1.81 1.94
2.81 3.01 3.08 3.14 3.25 3.38 3.44 3.31 3.24 3.23 3.16 2.98 2.87 2.68 2.59 2.69 2.70 2.28 2.00 2.01 2.04 1.96 2.08 2.17 1.93 1.68 1.52 1.35 1.34 1.35 1.24 1.11 1.19 1.27 1.26 1.26 1.27 1.39 1.63 1.82 1.91 1.98 1.96
2.66 2.70 2.81 2.99 3.12 3.23 3.45 3.45 3.32 3.14 3.04 2.95 2.90 2.76 2.66 2.68 2.63 2.27 1.95 1.92 1.97 1.89 1.92 2.02 1.89 1.72 1.57 1.43 1.38 1.35 1.24 1.26 1.35 1.33 1.33 1.38 1.41 1.48 1.60 1.68 1.81 1.95 1.95
2.73 2.66 2.58 2.62 2.75 2.90 3.02 3.11 3.05 3.00 2.86 2.73 2.57 2.51 2.46 2.46 2.48 2.24 1.98 1.93 2.04 2.11 2.07 2.04 1.98 1.84 1.69 1.55 1.50 1.53 1.56 1.55 1.49 1.49 1.53 1.53 1.51 1.51 1.57 1.65 1.74 1.84 1.82
2.65 2.54 2.51 2.47 2.55 2.61 2.62 2.59 2.46 2.36 2.22 2.05 1.98 1.91 1.87 1.92 2.09 1.94 1.80 1.86 2.05 2.18 2.06 1.96 2.03 1.96 1.82 1.71 1.64 1.64 1.64 1.60 1.56 1.59 1.57 1.56 1.54 1.52 1.57 1.62 1.65 1.67 1.69
2.55 2.42 2.29 2.19 2.21 2.21 2.26 2.42 2.48 2.26 2.06 1.84 1.73 1.61 1.54 1.64 1.73 1.74 1.71 1.75 1.87 1.88 1.71 1.73 1.84 1.86 1.76 1.70 1.65 1.62 1.57 1.62 1.68 1.62 1.57 1.60 1.61 1.60 1.63 1.67 1.67 1.71 1.69
2.40 2.42 2.30 2.18 2.16 2.16 2.24 2.34 2.48 2.46 2.17 1.80 1.70 1.61 1.41 1.34 1.36 1.42 1.50 1.54 1.55 1.55 1.49 1.55 1.61 1.67 1.68 1.70 1.71 1.71 1.65 1.66 1.69 1.68 1.65 1.66 1.67 1.64 1.66 1.66 1.61 1.62 1.72
2.23 2.19 2.15 2.20 2.17 2.16 2.29 2.34 2.33 2.38 2.23 2.00 1.74 1.53 1.39 1.23 1.22 1.32 1.29 1.25 1.33 1.36 1.34 1.38 1.43 1.45 1.50 1.55 1.56 1.63 1.65 1.65 1.66 1.69 1.65 1.65 1.69 1.68 1.68 1.66 1.65 1.68 1.70
2.16 2.09 1.98 1.95 1.94 1.91 1.97 2.08 2.12 2.24 2.20 2.09 1.91 1.63 1.40 1.25 1.20 1.26 1.23 1.28 1.36 1.37 1.33 1.35 1.33 1.34 1.39 1.47 1.55 1.63 1.67 1.70 1.74 1.72 1.69 1.69 1.72 1.73 1.72 1.73 1.74 1.76 1.77
2.09 1.91 1.67 1.54 1.59 1.70 1.83 1.96 1.99 2.04 2.13 2.07 1.85 1.60 1.38 1.17 1.22 1.31 1.36 1.37 1.36 1.35 1.31 1.30 1.28 1.28 1.32 1.41 1.49 1.56 1.63 1.69 1.69 1.71 1.77 1.75 1.69 1.68 1.68 1.72 1.73 1.77 1.84
1.95 1.78 1.57 1.45 1.49 1.59 1.71 1.90 1.98 1.93 1.91 1.88 1.76 1.56 1.41 1.21 1.23 1.29 1.31 1.31 1.29 1.32 1.30 1.27 1.22 1.23 1.26 1.35 1.46 1.52 1.59 1.62 1.64 1.68 1.70 1.71 1.72 1.72 1.71 1.76 1.76 1.76 1.78
1.85 1.77 1.64 1.55 1.62 1.67 1.72 1.79 1.80 1.78 1.73 1.66 1.59 1.49 1.42 1.38 1.36 1.37 1.37 1.34 1.33 1.31 1.30 1.30 1.25 1.21 1.27 1.38 1.44 1.49 1.55 1.54 1.53 1.56 1.64 1.71 1.73 1.73 1.78 1.81 1.77 1.74 1.71
1.64 1.68 1.63 1.56 1.58 1.63 1.62 1.66 1.62 1.61 1.57 1.51 1.44 1.43 1.42 1.44 1.42 1.38 1.38 1.37 1.34 1.25 1.19 1.21 1.22 1.23 1.26 1.28 1.26 1.26 1.27 1.32 1.32 1.36 1.45 1.56 1.62 1.70 1.78 1.80 1.76 1.72 1.80
1.53 1.60 1.62 1.63 1.62 1.62 1.65 1.68 1.61 1.55 1.52 1.51 1.49 1.47 1.45 1.43 1.39 1.40 1.39 1.32 1.25 1.24 1.22 1.23 1.25 1.20 1.14 1.14 1.12 1.10 1.21 1.22 1.18 1.22 1.33 1.50 1.59 1.70 1.83 1.85 1.84 1.86 1.96
1.43 1.46 1.51 1.53 1.54 1.55 1.55 1.59 1.59 1.51 1.45 1.37 1.35 1.36 1.29 1.26 1.27 1.26 1.23 1.20 1.21 1.23 1.20 1.17 1.18 1.18 1.14 1.10 1.11 1.19 1.22 1.18 1.19 1.28 1.25 1.28 1.42 1.52 1.63 1.70 1.68 1.78 1.89